User: anonymous   Login
Location: ČR
(50.0000°N, 15.0000°E)
Time: 15:05:45
(UTC+00:00)
Language:

Explorer 7 - Orbit

View from above orbital plane
View from above orbital plane
View from above satellite
View from above satellite

Ground track
Ground track

The orbit data is extracted from the following two-line orbital elements,

1 00022U 59009A   21297.85990594  .00001084  00000-0  10217-3 0  9994
2 00022  50.2841 301.2786 0138074 348.4875  11.2925 14.95777204544352
Epoch (UTC): 24 October 2021 20:38:15
Eccentricity: 0.0138074
inclination: 50.2841°
perigee height: 484 km
apogee height: 676 km
right ascension of ascending node: 301.2786°
argument of perigee: 348.4875°
revolutions per day: 14.95777204
mean anomaly at epoch: 11.2925°
orbit number at epoch: 54435

The dashed part of the orbit path shows where the satellite is in the earth's shadow,  

DLR